Content
SEND FEEDBACK

Daily
Averages
Monthly
Summary
United States of America

BANTRY, NORTH DAKOTA


Home > North America > United States > North Dakota
Elevation: 445 meters     Latitude: 48 30N     Longitude: 100 36W

WEATHER
 
SELECT A DAY
Number of Records: 93,573;   Date Range: 11/13/98 - 10/30/14
 
SHARE

PRINT THIS DATA

[ ← Previous Day ]
WEATHER ALMANAC - 23 JANUARY, 2013
[ Next Day → ]
[ °F ]   °C
Weather ElementAverageHighLow
Temperature-22.6 °C (7:35 am)-26 °C (7:15 pm)
Dewpoint-25.9 °C (7:35 am)-30 °C (7:35 pm)
Humidity74.2 %85 % (12:35 am)64 % (7:35 pm)
Barometer1028.8 hPa1033.9 hPa (6:15 pm)1020 hPa (12:35 am)
Wind Speed16.6 km/h25.9 km/h (11:35 pm)
Weather ElementAverage
Visibility15.9 km
Wind DirectionSW (226.9 °)

Weather ElementTotal
Precipitation---
Heating Degree Days40.2 (Base 18.3)
Averaged from 71 records on 23 January, 2013
WEATHER CONDITIONS BREAKOUT
WIND DIRECTION BREAKOUT
WEATHER BY HOUR - 23 JANUARY, 2013
[ °F ]   °C
Local TimeTemperatureDewpointHumidityBarometerVisibilityWind DirectionWind SpeedGust SpeedPrecipitationEventsConditions
12:35 AM-19 °C-21 °C85 %1020 hPa16.1 kmWNW (300°)16.7 km/hClear
12:55 AM-18 °C-20 °C85 %1020.3 hPa16.1 kmNW (310°)22.2 km/hClear
1:15 AM-18 °C-20 °C85 %1020 hPa16.1 kmNW (310°)24.1 km/hClear
1:35 AM-18 °C-21 °C78 %1020.3 hPa16.1 kmNW (310°)20.4 km/hClear
1:55 AM-19 °C-22 °C78 %1020.7 hPa16.1 kmNW (320°)18.5 km/hClear
2:15 AM-19 °C-22 °C78 %1020.7 hPa16.1 kmNW (310°)20.4 km/hClear
2:35 AM-19 °C-22 °C78 %1020.7 hPa16.1 kmNW (310°)22.2 km/hClear
2:55 AM-19 °C-22 °C78 %1021 hPa16.1 kmNW (310°)24.1 km/hClear
3:15 AM-19 °C-22 °C78 %1021.3 hPa16.1 kmNW (310°)24.1 km/hClear
3:35 AM-20 °C-23 °C78 %1021.7 hPa16.1 kmNW (310°)22.2 km/hClear
3:55 AM-20 °C-23 °C78 %1021.7 hPa16.1 kmNW (310°)22.2 km/hClear
4:15 AM-20 °C-23 °C78 %1022 hPa16.1 kmWNW (300°)22.2 km/hClear
4:35 AM-21 °C-23 °C84 %1022.4 hPa16.1 kmNW (310°)24.1 km/hClear
4:55 AM-22 °C-24 °C84 %1022.4 hPa16.1 kmNW (310°)20.4 km/hClear
5:15 AM-22 °C-24 °C84 %1023 hPa16.1 kmNW (320°)20.4 km/hClear
5:35 AM-22 °C-25 °C77 %1023.4 hPa16.1 kmNW (310°)22.2 km/hClear
5:55 AM-23 °C-25 °C84 %1023.7 hPa16.1 kmNW (310°)22.2 km/hClear
6:15 AM-23 °C-25 °C84 %1024 hPa16.1 kmNW (310°)22.2 km/hClear
6:35 AM-23 °C-26 °C77 %1024.7 hPa16.1 kmNW (310°)18.5 km/hClear
6:55 AM-24 °C-27 °C77 %1025.1 hPa16.1 kmNW (310°)18.5 km/hClear
7:15 AM-24 °C-27 °C77 %1025.4 hPa16.1 kmNW (310°)18.5 km/hClear
7:35 AM-17.8 °C-17.8 °C1025.7 hPa16.1 kmNW (310°)18.5 km/hClear
7:55 AM-24 °C-27 °C77 %1026.1 hPa16.1 kmNW (310°)18.5 km/hClear
8:15 AM-25 °C-28 °C77 %1026.8 hPa16.1 kmNW (320°)20.4 km/hClear
8:35 AM-25 °C-27 °C84 %1027.1 hPa16.1 kmNW (320°)16.7 km/hClear
8:55 AM-25 °C-28 °C77 %1027.4 hPa16.1 kmNW (320°)14.8 km/hClear
9:15 AM-25 °C-28 °C77 %1027.8 hPa16.1 kmNNW (330°)14.8 km/hClear
9:35 AM-25 °C-27 °C84 %1028.1 hPa16.1 kmNNW (330°)13 km/hClear
9:55 AM-24 °C-27 °C77 %1028.8 hPa16.1 kmNNW (330°)11.1 km/hClear
10:15 AM-24 °C-27 °C77 %1029.1 hPa16.1 kmNW (320°)14.8 km/hClear
10:35 AM-24 °C-27 °C77 %1029.5 hPa16.1 kmNNW (330°)13 km/hClear
10:55 AM-23 °C-26 °C77 %1030.1 hPa16.1 kmNW (320°)9.3 km/hClear
11:15 AM-23 °C-26 °C77 %1030.5 hPa16.1 kmNNW (340°)7.4 km/hClear
11:35 AM-22 °C-25 °C77 %1030.8 hPa16.1 kmNNW (330°)5.6 km/hClear
11:55 AM-22 °C-25 °C77 %1031.2 hPa16.1 kmNW (320°)9.3 km/hClear
12:15 PM-22 °C-25 °C77 %1031.2 hPa16.1 kmNW (320°)11.1 km/hClear
12:35 PM-21 °C-25 °C71 %1031.2 hPa16.1 kmNW (320°)9.3 km/hClear
12:55 PM-21 °C-25 °C71 %1031.2 hPa16.1 kmNNW (330°)11.1 km/hClear
1:15 PM-21 °C-25 °C71 %1030.8 hPa16.1 kmNNW (330°)5.6 km/hClear
1:35 PM-20 °C-25 °C65 %1030.8 hPa16.1 kmNorth (360°)7.4 km/hClear
1:55 PM-20 °C-25 °C65 %1031.2 hPa16.1 kmNorth (350°)7.4 km/hClear
2:15 PM-20 °C-25 °C65 %1031.5 hPa16.1 kmCalmClear
2:35 PM-21 °C-25 °C71 %1031.5 hPa16.1 kmEast (80°)18.5 km/hClear
2:55 PM-22 °C-25 °C77 %1031.8 hPa6.4 kmENE (70°)14.8 km/hHaze
3:15 PM-22 °C-26 °C71 %1032.5 hPa16.1 kmEast (90°)14.8 km/hClear
3:35 PM-22 °C-26 °C71 %1032.8 hPa16.1 kmEast (80°)14.8 km/hClear
3:55 PM-22 °C-27 °C65 %1033.5 hPa16.1 kmEast (80°)13 km/hClear
4:15 PM-23 °C-27 °C71 %1033.5 hPa16.1 kmEast (100°)13 km/hClear
4:35 PM-23 °C-27 °C71 %1033.5 hPa16.1 kmEast (90°)14.8 km/hClear
4:55 PM-24 °C-28 °C70 %1033.5 hPa16.1 kmEast (100°)16.7 km/hClear
5:15 PM-24 °C-28 °C70 %1033.5 hPa16.1 kmEast (100°)16.7 km/hClear
5:35 PM-17.8 °C-17.8 °C1033.5 hPa16.1 kmEast (100°)14.8 km/hClear
5:55 PM-25 °C-29 °C70 %1033.5 hPa16.1 kmESE (110°)13 km/hClear
6:15 PM-25 °C-29 °C70 %1033.9 hPa16.1 kmESE (120°)13 km/hClear
6:35 PM-25 °C-29 °C70 %1033.9 hPa16.1 kmESE (120°)13 km/hClear
6:55 PM-25 °C-29 °C70 %1033.9 hPa16.1 kmESE (110°)14.8 km/hClear
7:15 PM-26 °C-29 °C77 %1033.2 hPa16.1 kmEast (100°)14.8 km/hClear
7:35 PM-25 °C-30 °C64 %1033.2 hPa16.1 kmEast (100°)16.7 km/hClear
7:55 PM-26 °C-30 °C70 %1033.2 hPa16.1 kmESE (110°)18.5 km/hClear
8:15 PM-26 °C-30 °C70 %1033.2 hPa16.1 kmESE (110°)16.7 km/hClear
8:35 PM-25 °C-30 °C64 %1033.2 hPa16.1 kmESE (110°)14.8 km/hClear
8:55 PM-25 °C-30 °C64 %1033.9 hPa16.1 kmESE (120°)13 km/hClear
9:15 PM-25 °C-30 °C64 %1033.9 hPa16.1 kmESE (110°)18.5 km/hClear
9:35 PM-25 °C-30 °C64 %1033.2 hPa16.1 kmEast (100°)20.4 km/hClear
9:55 PM-25 °C-30 °C64 %1033.9 hPa16.1 kmESE (110°)18.5 km/hClear
10:15 PM-25 °C-29 °C70 %1033.5 hPa16.1 kmESE (120°)20.4 km/hClear
10:35 PM-25 °C-29 °C70 %1033.9 hPa16.1 kmSE (130°)16.7 km/hClear
10:55 PM-25 °C-29 °C70 %1033.9 hPa16.1 kmESE (120°)18.5 km/hClear
11:15 PM-25 °C-29 °C70 %1033.5 hPa16.1 kmSE (130°)24.1 km/hClear
11:35 PM-25 °C-29 °C70 %1032.8 hPa16.1 kmESE (120°)25.9 km/hClear
11:55 PM-24 °C-29 °C64 %1033.2 hPa16.1 kmESE (120°)25.9 km/hClear
Hourly data recorded from KRUG, located 0 kilometers away from Bantry, North Dakota







STORIES FROM OUR PARTNERS